When you browse on this site, cookies collect data to enhance your experience and personalize the content and advertising you see.
Visit our Privacy Policy to learn more. By continuing to use the site, you agree to this use of cookies and data.

Hourly Weather Maracay

Today, 10 July, Friday

Time Temperature Precipitation Wind Pressure Humidity
00:00 +23°C° 0 mm 1 mps 712 mmHg 89%
01:00 +21°C° 0 mm 0 mps 711 mmHg 87%
02:00 +22°C° 0 mm 1 mps 711 mmHg 87%
03:00 +22°C° 0 mm 1 mps 711 mmHg 87%
04:00 +22°C° 0 mm 1 mps 711 mmHg 88%
05:00 +23°C° 0 mm 1 mps 712 mmHg 85%
06:00 +22°C° 0 mm 0 mps 712 mmHg 83%
07:00 +23°C° 0 mm 0 mps 712 mmHg 80%
08:00 +27°C° 0 mm 1 mps 713 mmHg 74%
09:00 +28°C° 0 mm 1 mps 713 mmHg 68%
10:00 +29°C° 0 mm 2 mps 713 mmHg 62%
11:00 +30°C° 0.2 mm 2 mps 713 mmHg 62%
12:00 +30°C° 0.2 mm 1 mps 712 mmHg 61%
13:00 +31°C° 0.2 mm 1 mps 712 mmHg 60%
14:00 +30°C° 0.7 mm 1 mps 711 mmHg 65%
15:00 +29°C° 0.7 mm 2 mps 711 mmHg 71%
16:00 +28°C° 0.7 mm 2 mps 710 mmHg 76%
17:00 +27°C° 0.8 mm 2 mps 710 mmHg 80%
18:00 +26°C° 0.8 mm 1 mps 711 mmHg 84%
19:00 +25°C° 0.8 mm 1 mps 711 mmHg 88%
20:00 +24°C° 0.2 mm 1 mps 711 mmHg 89%
21:00 +24°C° 0.2 mm 1 mps 712 mmHg 89%
22:00 +23°C° 0.2 mm 1 mps 712 mmHg 90%
23:00 +23°C° 0 mm 1 mps 712 mmHg 90%

Tomorrow, 11 July, Saturday

Time Temperature Precipitation Wind Pressure Humidity
00:00 +23°C° 0 mm 1 mps 711 mmHg 89%
01:00 +23°C° 0 mm 1 mps 711 mmHg 89%
02:00 +23°C° 0 mm 1 mps 711 mmHg 89%
03:00 +23°C° 0 mm 1 mps 711 mmHg 89%
04:00 +23°C° 0 mm 1 mps 710 mmHg 89%
05:00 +21°C° 0 mm 0 mps 711 mmHg 88%
06:00 +22°C° 0 mm 0 mps 711 mmHg 87%
07:00 +23°C° 0 mm 0 mps 712 mmHg 86%
08:00 +24°C° 0.4 mm 0 mps 712 mmHg 83%
09:00 +25°C° 0.4 mm 0 mps 712 mmHg 80%
10:00 +25°C° 0.4 mm 0 mps 713 mmHg 77%
11:00 +26°C° 0.5 mm 0 mps 712 mmHg 73%
12:00 +29°C° 0.5 mm 1 mps 711 mmHg 69%
13:00 +30°C° 0.5 mm 1 mps 711 mmHg 65%
14:00 +30°C° 0.7 mm 1 mps 710 mmHg 68%
15:00 +29°C° 0.7 mm 1 mps 710 mmHg 71%
16:00 +29°C° 0.7 mm 1 mps 709 mmHg 74%
17:00 +27°C° 0.2 mm 1 mps 710 mmHg 79%
18:00 +26°C° 0.2 mm 1 mps 710 mmHg 84%
19:00 +25°C° 0.2 mm 1 mps 710 mmHg 89%
20:00 +24°C° 0.1 mm 1 mps 711 mmHg 90%
21:00 +24°C° 0.1 mm 1 mps 711 mmHg 91%
22:00 +24°C° 0.1 mm 1 mps 712 mmHg 92%
23:00 +24°C° 0.2 mm 1 mps 712 mmHg 92%

Day after tomorrow, 12 July, Sunday

Time Temperature Precipitation Wind Pressure Humidity
00:00 +23°C° 0.2 mm 1 mps 711 mmHg 91%
01:00 +21°C° 0.2 mm 0 mps 711 mmHg 91%
02:00 +21°C° 0.1 mm 0 mps 711 mmHg 90%
03:00 +23°C° 0.1 mm 1 mps 711 mmHg 89%
04:00 +23°C° 0.1 mm 1 mps 711 mmHg 88%
05:00 +23°C° 0 mm 1 mps 711 mmHg 88%
06:00 +24°C° 0 mm 1 mps 712 mmHg 87%
07:00 +24°C° 0 mm 1 mps 712 mmHg 86%
08:00 +26°C° 0.3 mm 1 mps 712 mmHg 81%
09:00 +27°C° 0.3 mm 1 mps 712 mmHg 76%
10:00 +29°C° 0.3 mm 2 mps 713 mmHg 71%
11:00 +29°C° 1 mm 2 mps 712 mmHg 72%
12:00 +29°C° 1 mm 2 mps 712 mmHg 73%
13:00 +29°C° 1 mm 2 mps 711 mmHg 74%
14:00 +29°C° 1.5 mm 2 mps 711 mmHg 76%
15:00 +28°C° 1.5 mm 2 mps 710 mmHg 77%
16:00 +28°C° 1.5 mm 1 mps 710 mmHg 79%
17:00 +27°C° 0.7 mm 1 mps 710 mmHg 82%
18:00 +26°C° 0.7 mm 1 mps 710 mmHg 85%
19:00 +25°C° 0.7 mm 1 mps 711 mmHg 87%
20:00 +24°C° 0.1 mm 1 mps 711 mmHg 87%
21:00 +24°C° 0.1 mm 1 mps 712 mmHg 88%
22:00 +24°C° 0.1 mm 1 mps 712 mmHg 88%
23:00 +23°C° 0 mm 1 mps 712 mmHg 88%

13 July, Monday

Time Temperature Precipitation Wind Pressure Humidity
00:00 +23°C° 0 mm 1 mps 711 mmHg 88%
01:00 +21°C° 0 mm 0 mps 711 mmHg 89%
02:00 +23°C° 0 mm 1 mps 711 mmHg 89%
03:00 +23°C° 0 mm 1 mps 711 mmHg 89%
04:00 +23°C° 0 mm 1 mps 711 mmHg 89%
05:00 +23°C° 0 mm 1 mps 711 mmHg 88%
06:00 +22°C° 0 mm 0 mps 712 mmHg 86%
07:00 +23°C° 0 mm 0 mps 712 mmHg 85%
08:00 +26°C° 0 mm 1 mps 713 mmHg 78%
09:00 +28°C° 0 mm 1 mps 713 mmHg 71%
10:00 +29°C° 0 mm 2 mps 713 mmHg 63%
11:00 +30°C° 0.1 mm 2 mps 713 mmHg 62%
12:00 +31°C° 0.1 mm 2 mps 712 mmHg 60%
13:00 +31°C° 0.1 mm 2 mps 712 mmHg 58%
14:00 +31°C° 0.1 mm 2 mps 711 mmHg 61%
15:00 +30°C° 0.1 mm 2 mps 711 mmHg 64%
16:00 +30°C° 0.1 mm 1 mps 711 mmHg 67%
17:00 +28°C° 0.2 mm 1 mps 711 mmHg 75%
18:00 +26°C° 0.2 mm 1 mps 711 mmHg 82%
19:00 +25°C° 0.2 mm 1 mps 711 mmHg 89%
20:00 +24°C° 0.1 mm 1 mps 712 mmHg 90%
21:00 +24°C° 0.1 mm 1 mps 712 mmHg 91%
22:00 +24°C° 0.1 mm 1 mps 712 mmHg 91%
23:00 +23°C° 0 mm 1 mps 712 mmHg 92%

14 July, Tuesday

Time Temperature Precipitation Wind Pressure Humidity
00:00 +23°C° 0 mm 1 mps 712 mmHg 93%
01:00 +23°C° 0 mm 1 mps 711 mmHg 93%
02:00 +23°C° 0.1 mm 1 mps 711 mmHg 93%
03:00 +23°C° 0.1 mm 1 mps 711 mmHg 93%
04:00 +23°C° 0.1 mm 1 mps 711 mmHg 93%
05:00 +23°C° 0.1 mm 1 mps 712 mmHg 91%
06:00 +24°C° 0.1 mm 1 mps 712 mmHg 90%
07:00 +23°C° 0.1 mm 0 mps 713 mmHg 88%
08:00 +26°C° 0.1 mm 1 mps 713 mmHg 83%
09:00 +27°C° 0.1 mm 1 mps 713 mmHg 79%
10:00 +28°C° 0.1 mm 1 mps 714 mmHg 74%
11:00 +28°C° 0.4 mm 1 mps 713 mmHg 74%
12:00 +29°C° 0.4 mm 1 mps 713 mmHg 73%
13:00 +29°C° 0.4 mm 2 mps 712 mmHg 73%
14:00 +29°C° 0.3 mm 1 mps 712 mmHg 74%
15:00 +28°C° 0.3 mm 1 mps 711 mmHg 74%
16:00 +28°C° 0.3 mm 1 mps 711 mmHg 74%
17:00 +27°C° 0.1 mm 1 mps 711 mmHg 79%
18:00 +26°C° 0.1 mm 1 mps 711 mmHg 84%
19:00 +24°C° 0.1 mm 1 mps 712 mmHg 90%
20:00 +24°C° 0 mm 1 mps 712 mmHg 90%
21:00 +24°C° 0 mm 1 mps 712 mmHg 91%
22:00 +23°C° 0 mm 1 mps 712 mmHg 91%
23:00 +23°C° 0 mm 1 mps 712 mmHg 91%

15 July, Wednesday

Time Temperature Precipitation Wind Pressure Humidity
00:00 +21°C° 0 mm 0 mps 711 mmHg 92%
01:00 +21°C° 0 mm 0 mps 711 mmHg 92%
02:00 +21°C° 0 mm 0 mps 711 mmHg 91%
03:00 +20°C° 0 mm 0 mps 711 mmHg 91%
04:00 +20°C° 0 mm 0 mps 711 mmHg 90%
05:00 +21°C° 0 mm 0 mps 711 mmHg 89%
06:00 +22°C° 0 mm 0 mps 712 mmHg 87%
07:00 +22°C° 0 mm 0 mps 712 mmHg 85%
08:00 +25°C° 0 mm 1 mps 712 mmHg 81%
09:00 +27°C° 0 mm 1 mps 713 mmHg 76%
10:00 +28°C° 0 mm 1 mps 713 mmHg 71%
11:00 +28°C° 0.3 mm 2 mps 712 mmHg 70%
12:00 +29°C° 0.3 mm 2 mps 712 mmHg 69%
13:00 +29°C° 0.3 mm 2 mps 711 mmHg 67%
14:00 +29°C° 0.7 mm 2 mps 711 mmHg 71%
15:00 +28°C° 0.7 mm 2 mps 710 mmHg 75%
16:00 +28°C° 0.7 mm 2 mps 710 mmHg 78%
17:00 +26°C° 0.5 mm 1 mps 710 mmHg 82%
18:00 +25°C° 0.5 mm 1 mps 710 mmHg 86%
19:00 +24°C° 0.5 mm 1 mps 710 mmHg 89%
20:00 +24°C° 0.4 mm 1 mps 711 mmHg 90%
21:00 +24°C° 0.4 mm 1 mps 711 mmHg 90%
22:00 +23°C° 0.4 mm 1 mps 712 mmHg 91%
23:00 +23°C° 0.3 mm 1 mps 711 mmHg 90%
Show more